SCP
0 0 0 0 0 0 0 0 0 0 0 0 0 0 0 0 0 0 0 0 0 0 0 0 0 0 0 0 0 0 0 0 0 0 0 0 0 0 0 0 0 0 0
0 0 0 0 0 0 0 0 0 0 0 0 0 0 0 0 0 0 0 0 0 0 0 0 0 0 0 0 0 0 0 0 0 0 0 0 0 0 0 0 0 0 0
0 0 0 0 0 0 0 0 0 0 0 0 0 0 0 0 0 0 0 0 0 0 0 0 0 0 0 0 0 0 0 0 0 0 0 0 0 0 0 0 0 0 0
0 0 0 0 0 0 0 0 0 0 0 0 0 0 0 0 0 0 0 0 0 0 0 0 0 0 0 0 0 0 0 0 0 0 0 0 0 0 0 0 0 0 0
0 0 0 0 0 0 0 0 0 0 0 0 0 0 0 0 0 0 0 0 0 0 0 0 0 0 0 0 0 0 0 0 0 0 0 0 0 0 0 0 0 0 0
0 0 0 0 0 0 0 0 0 0 0 0 0 0 0 0 0 0 0 0 0 0 0 0 0 0 0 0 0 0 0 0 0 0 0 0 0 0 0 0 0 0 0
0 0 0 0 0 0 0 0 0 0 0 0 0 0 0 0 0 0 0 0 0 0 0 0 0 0 0 0 0 0 0 0 0 0 0 0 0 0 0 0 0 0 0
0 0 0 0 0 0 0 0 0 0 0 0 0 0 0 0 0 0 0 0 0 0 0 0 0 0 0 0 0 0 0 0 0 0 0 0 0 0 0 0 0 0 0
0 0 0 0 0 0 0 0 0 0 0 0 0 0 0 0 0 0 0 0 0 0 0 0 0 0 0 0 0 0 0 0 0 0 0 0 0 0 0 0 0 0 0
0 0 0 0 0 0 0 0 0 0 0 0 0 0 0 0 0 0 0 0 0 0 0 0 0 0 0 0 0 0 0 0 0 0 0 0 0 0 0 0 0 0 0
0 0 0 0 0 0 0 0 0 0 0 0 0 0 0 0 0 0 0 0 0 0 0 0 0 0 0 0 0 0 0 0 0 0 0 0 0 0 0 0 0 0 0
0 0 0 0 0 0 0 0 0 0 0 0 0 0 0 0 0 0 0 0 0 0 0 0 0 0 0 0 0 0 0 0 0 0 0 0 0 0 0 0 0 0 0
0 0 0 0 0 0 0 0 0 0 0 0 0 0 0 0 0 0 0 0 0 0 0 0 0 0 0 0 0 0 0 0 0 0 0 0 0 0 0 0 0 0 0
0 0 0 0 0 0 0 0 0 0 0 0 0 0 0 0 0 0 0 0 0 0 0 0 0 0 0 0 0 0 0 0 0 0 0 0 0 0 0 0 0 0 0
0 0 0 0 0 0 0 0 0 0 0 0 0 0 0 0 0 0 0 0 0 0 0 0 0 0 0 0 0 0 0 0 0 0 0 0 0 0 0 0 0 0 0
0 0 0 0 0 0 0 0 0 0 0 0 0 0 0 0 0 0 0 0 0 0 0 0 0 0 0 0 0 0 0 0 0 0 0 0 0 0 0 0 0 0 0
0 0 0 0 0 0 0 0 0 0 0 0 0 0 0 0 0 0 0 0 0 0 0 0 0 0 0 0 0 0 0 0 0 0 0 0 0 0 0 0 0 0 0
0 0 0 0 0 0 0 0 0 0 0 0 0 0 0 0 0 0 0 0 0 0 0 0 0 0 0 0 0 0 0 0 0 0 0 0 0 0 0 0 0 0 0
0 0 0 0 0 0 0 0 0 0 0 0 0 0 0 0 0 0 0 0 0 0 0 0 0 0 0 0 0 0 0 0 0 0 0 0 0 0 0 0 0 0 0
0 0 0 0 0 0 0 0 0 0 0 0 0 0 0 0 0 0 0 0 0 0 0 0 0 0 0 0 0 0 0 0 0 0 0 0 0 0 0 0 0 0 0
0 0 0 0 0 0 0 0 0 0 0 0 0 0 0 0 0 0 0 0 0 0 0 0 0 0 0 0 0 0 0 0 0 0 0 0 0 0 0 0 0 0 0
0 0 0 0 0 0 0 0 0 0 0 0 0 0 0 0 0 0 0 0 0 0 0 0 0 0 0 0 0 0 0 0 0 0 0 0 0 0 0 0 0 0 0
0 0 0 0 0 0 0 0 0 0 0 0 0 0 0 0 0 0 0 0 0 0 0 0 0 0 0 0 0 0 0 0 0 0 0 0 0 0 0 0 0 0 0
0 0 0 0 0 0 0 0 0 0 0 0 0 0 0 0 0 0 0 0 0 0 0 0 0 0 0 0 0 0 0 0 0 0 0 0 0 0 0 0 0 0 0
0 0 0 0 0 0 0 0 0 0 0 0 0 0 0 0 0 0 0 0 0 0 0 0 0 0 0 0 0 0 0 0 0 0 0 0 0 0 0 0 0 0 0
0 0 0 0 0 0 0 0 0 0 0 0 0 0 0 0 0 0 0 0 0 0 0 0 0 0 0 0 0 0 0 0 0 0 0 0 0 0 0 0 0 0 0
Wind_Speed
9 11 22 21 20 19 18 16 15 14 13 13 12 12 12 12 12 12 12 12 12 13 14 14 15 15 15 15 15 15 16 16 17 18 19 18 19 19 19 19 17 12 20
14 15 24 23 22 20 19 17 16 15 14 13 13 13 12 12 12 12 11 11 12 12 13 13 14 14 14 14 14 15 15 15 16 17 17 16 16 18 18 18 18 13 19
15 17 21 24 23 21 20 18 17 16 15 14 13 13 12 12 11 11 11 11 11 11 12 12 13 13 13 13 13 14 14 15 15 15 15 9 9 17 17 17 17 18 18
16 14 16 24 23 22 21 19 18 17 16 15 14 13 13 12 11 11 11 11 10 11 11 11 11 12 12 12 12 13 13 13 13 14 8 8 7 14 16 16 16 17 17
14 12 16 25 24 23 21 20 19 18 17 16 15 14 13 12 12 11 11 10 10 10 10 10 10 10 11 11 11 12 12 12 12 10 7 7 6 11 14 14 15 15 15
13 11 15 26 24 23 22 21 20 19 18 17 16 15 14 13 12 12 11 10 10 10 9 9 9 9 9 9 9 10 11 11 8 5 6 7 6 10 13 13 13 13 14
14 11 13 25 24 23 22 21 20 19 18 18 16 15 15 14 13 12 11 10 10 9 9 8 8 8 8 8 8 9 10 10 4 3 5 6 6 10 11 11 12 12 13
16 13 12 24 24 23 22 22 21 20 19 18 17 16 15 14 13 13 12 11 10 9 9 8 7 7 7 7 7 8 9 8 4 2 4 5 6 9 10 10 10 11 11
12 12 10 13 18 23 23 22 21 20 19 19 18 17 16 15 14 13 12 11 10 9 9 8 7 6 5 5 6 7 8 8 4 0 3 4 5 7 8 9 9 9 10
10 11 10 9 10 11 14 21 21 21 20 19 18 17 16 15 15 14 12 12 11 10 9 8 7 6 5 4 4 6 6 6 2 1 2 4 5 6 7 7 7 8 8
11 11 10 9 9 9 9 15 18 20 20 19 16 18 15 6 5 7 10 13 12 11 10 9 8 7 6 4 4 5 5 2 2 2 2 4 4 4 5 5 6 6 7
17 15 12 12 10 9 9 8 7 7 8 8 6 7 5 5 4 6 12 14 13 12 11 10 9 7 5 1 2 3 2 3 2 2 3 4 3 3 3 4 4 5 5
16 15 14 13 11 11 8 6 4 4 4 6 7 7 6 5 4 4 3 6 6 8 4 5 4 2 2 2 2 2 3 3 2 2 3 5 4 4 3 3 3 4 4
11 16 15 14 12 12 9 7 6 5 5 5 7 8 6 4 4 4 3 3 3 2 3 3 2 3 4 4 5 4 4 3 3 3 4 8 6 5 5 5 4 4 4
13 15 15 15 15 12 10 8 8 8 7 7 6 8 8 6 6 5 4 4 4 3 4 4 4 5 5 5 5 6 6 5 5 4 4 9 9 8 8 7 6 6 6
17 17 15 17 16 13 12 11 9 8 7 7 8 9 10 8 7 6 6 6 5 5 5 5 6 5 5 4 6 6 6 6 5 5 5 7 11 11 10 9 9 8 8
17 16 16 17 15 15 14 13 9 8 9 9 9 9 11 9 9 8 7 7 7 6 6 5 5 4 5 5 6 7 6 6 6 7 6 5 6 11 13 12 11 11 10
13 14 16 15 16 16 14 12 9 9 10 9 8 9 12 12 10 9 8 8 7 6 6 6 5 5 5 5 5 6 6 5 7 7 6 6 5 6 9 14 14 13 12
15 14 15 15 16 15 13 10 9 8 10 9 8 9 11 13 12 10 9 7 7 6 6 7 6 5 6 6 6 6 5 6 7 8 8 8 8 7 6 12 16 15 14
10 11 13 14 13 11 8 6 6 7 8 7 9 10 11 11 12 11 8 8 7 6 7 6 7 6 5 5 6 7 6 7 7 8 10 8 8 9 8 8 8 10 16
8 10 13 14 12 10 8 8 9 10 8 7 8 10 12 12 12 12 9 8 8 9 10 10 7 7 6 3 2 5 5 8 11 10 9 8 9 10 8 9 7 6 7
8 10 11 13 12 12 12 9 6 6 5 6 6 9 11 12 12 12 12 9 10 9 9 10 9 6 5 6 5 2 5 5 7 11 10 10 11 8 9 11 9 9 7
6 9 10 12 12 12 10 5 2 2 1 3 6 7 9 12 12 13 13 12 11 11 11 12 11 11 9 7 7 6 5 8 4 4 7 9 8 8 9 7 10 10 10
4 5 6 7 9 9 8 7 9 9 11 10 8 7 8 11 13 14 13 13 13 12 13 12 12 11 10 9 6 8 7 4 3 5 3 4 7 9 9 9 10 10 10
2 1 3 4 6 7 8 10 10 12 12 7 5 7 9 9 12 14 14 13 14 13 14 13 12 13 12 12 9 6 9 8 6 5 8 4 3 5 7 8 7 8 9
4 3 0 2 4 5 8 9 10 13 12 9 9 9 8 8 9 13 13 14 14 13 14 15 14 15 14 14 12 10 8 7 8 10 14 10 7 5 6 7 8 8 8
Wind_Direction
186 180 178 169 166 164 161 158 154 149 144 139 133 128 123 118 113 106 101 94 88 85 82 79 76 72 70 69 68 68 68 64 58 50 45 51 59 61 61 61 56 47 52
164 173 176 170 169 167 165 162 158 154 150 146 141 136 131 126 120 113 107 101 95 90 86 83 79 75 72 71 70 71 71 69 62 53 42 32 48 61 59 57 56 54 53
159 170 174 172 171 170 168 164 162 159 156 153 148 143 139 134 127 121 115 108 101 94 90 87 83 78 75 74 74 74 74 72 64 50 33 13 23 59 59 57 55 54 51
162 169 170 174 173 172 170 167 165 164 161 158 154 151 147 142 136 130 123 117 110 102 96 91 87 82 78 77 78 79 77 74 64 44 19 4 4 57 58 56 54 53 51
165 168 173 175 175 174 172 170 169 167 165 163 160 157 153 149 144 138 132 126 119 112 104 98 92 88 83 80 81 84 83 77 61 30 4 357 352 55 59 55 54 52 50
166 167 178 177 177 176 175 174 172 171 169 167 165 163 160 156 152 147 141 136 130 123 115 106 99 93 87 84 85 91 93 84 56 14 359 350 341 53 58 55 53 52 50
166 168 182 179 180 179 178 177 176 175 174 172 170 169 166 163 158 154 151 146 141 135 126 118 109 101 94 89 88 96 103 99 80 17 351 342 341 54 55 52 50 50 48
167 170 182 183 183 183 182 181 179 179 178 176 175 174 172 168 166 164 161 157 153 148 141 133 124 114 106 100 97 101 106 107 92 20 333 330 4 52 53 50 46 46 45
166 172 185 186 185 186 186 185 183 183 182 181 180 179 178 176 175 173 171 169 165 160 155 149 143 135 125 115 111 113 112 118 115 224 322 318 12 45 50 47 43 42 41
172 179 186 186 182 184 187 190 188 187 186 186 185 183 182 183 182 181 178 178 177 174 171 167 163 160 153 142 132 130 120 114 138 196 300 301 12 34 44 42 37 35 35
183 188 186 186 181 179 181 193 191 191 191 190 188 187 185 176 174 181 181 188 187 186 185 183 182 182 179 185 180 153 127 134 167 212 268 296 3 17 31 32 28 26 26
190 192 190 187 181 177 186 190 186 187 189 182 174 178 158 152 169 174 193 198 197 196 197 197 199 196 180 188 235 173 148 173 179 212 251 282 325 346 4 11 11 9 12
190 189 192 190 183 182 184 181 179 177 175 170 170 163 154 157 175 187 197 212 206 200 194 211 212 177 174 197 215 206 199 194 197 219 247 263 280 300 316 328 336 340 347
185 194 192 190 187 188 185 184 179 179 179 179 178 167 162 168 182 189 196 202 194 180 183 203 207 212 214 217 217 217 215 209 210 216 240 251 263 274 284 290 296 303 312
193 194 194 191 191 189 188 189 190 190 188 182 180 182 177 180 189 192 199 199 199 191 192 201 210 216 221 224 223 219 220 219 218 217 234 250 255 262 270 274 277 281 288
203 197 191 194 193 190 193 196 196 193 188 185 190 191 188 189 189 191 199 203 205 201 200 201 206 210 218 220 227 224 223 223 226 224 222 245 253 256 261 266 268 270 275
205 197 192 194 193 194 197 198 197 194 192 197 198 195 197 195 193 195 201 207 209 203 202 205 213 213 221 224 231 230 227 226 227 227 225 223 241 254 257 259 261 264 268
201 197 196 195 193 198 199 197 198 195 198 202 199 198 202 202 197 197 205 211 203 195 197 203 207 211 223 224 229 233 231 229 231 230 228 225 222 233 250 254 256 259 263
200 196 195 197 195 196 196 195 195 194 202 203 200 203 204 204 202 202 210 210 195 198 204 212 208 204 218 225 233 239 238 236 235 235 231 228 224 223 224 247 251 254 258
196 194 196 199 199 189 184 185 191 202 207 204 205 207 202 204 203 205 211 206 193 201 209 212 214 210 216 219 240 250 243 239 236 235 236 232 226 225 222 226 239 252 253
186 191 195 198 197 184 183 192 199 210 207 208 210 207 205 205 202 205 214 204 201 211 215 211 211 216 223 182 227 278 270 243 240 238 232 231 230 225 219 219 219 221 243
194 198 199 201 197 196 202 200 199 202 205 207 211 213 209 209 207 209 214 211 206 214 217 211 205 212 215 183 185 215 291 293 244 235 226 226 229 222 222 222 217 217 219
206 206 206 205 202 202 198 180 173 169 246 213 216 219 214 212 212 216 215 214 211 211 220 217 209 210 220 207 192 179 205 245 294 266 235 229 223 218 223 220 220 220 219
236 217 215 208 205 202 189 187 193 206 222 223 219 219 214 212 216 217 219 216 216 217 222 219 214 213 213 220 212 219 221 192 221 292 275 241 227 224 221 221 223 221 219
326 249 219 208 209 200 197 202 207 223 234 235 223 225 224 220 220 220 219 219 221 222 224 221 216 213 215 222 214 204 225 233 225 241 272 272 259 236 223 219 219 220 219
5 8 352 210 224 209 205 211 216 228 235 239 235 233 233 230 226 224 222 223 225 226 225 223 221 219 220 222 221 212 202 207 209 215 241 249 245 238 227 220 220 221 219